Вернуться в каталог

STARLINK-36645

АктивенСвязьSSO
NORAD 67707·PAYLOAD·🇺🇸 United States

Запущен Feb 7, 2026 с Vandenberg Space Force Base

Loading…

Ближайшие Пролёты (ближайшие 24 часа)

TLE

СвежийSource: CelesTrak SupGP

Эпоха: Sep 14, 2026, 21:02 UTC

1 67707C 26025Q   26257.87687500 -.00018116  00000+0 -56217-3 0  2574
2 67707  97.2859   7.9280 0001164 104.7207  77.5136 15.33458936    15

Отслеживайте STARLINK-36645 в реальном времени с AllMySat

Download on the App Store